﻿測定場所 (Monitoring sites),日付 (Measurement date),時間 (Measurement time),線量率 最大値 (max) μGy/h,線量率 最小値 (min) μGy/h,線量率 平均値 (average) μGy/h,
小平 (Kodaira),2012-01-22,23:01～24:00,0.0444,0.0392,0.0418,
小平 (Kodaira),2012-01-22,22:01～23:00,0.0446,0.0383,0.0415,
小平 (Kodaira),2012-01-22,21:01～22:00,0.0459,0.0389,0.0421,
小平 (Kodaira),2012-01-22,20:01～21:00,0.0452,0.0372,0.0419,
小平 (Kodaira),2012-01-22,19:01～20:00,0.0445,0.0379,0.0410,
小平 (Kodaira),2012-01-22,18:01～19:00,0.0433,0.0371,0.0400,
小平 (Kodaira),2012-01-22,17:01～18:00,0.0433,0.0370,0.0403,
小平 (Kodaira),2012-01-22,16:01～17:00,0.0446,0.0366,0.0405,
小平 (Kodaira),2012-01-22,15:01～16:00,0.0429,0.0381,0.0406,
小平 (Kodaira),2012-01-22,14:01～15:00,0.0439,0.0371,0.0406,
小平 (Kodaira),2012-01-22,13:01～14:00,0.0438,0.0378,0.0408,
小平 (Kodaira),2012-01-22,12:01～13:00,0.0433,0.0380,0.0404,
小平 (Kodaira),2012-01-22,11:01～12:00,0.0450,0.0380,0.0411,
小平 (Kodaira),2012-01-22,10:01～11:00,0.0441,0.0377,0.0409,
小平 (Kodaira),2012-01-22,09:01～10:00,0.0441,0.0375,0.0409,
小平 (Kodaira),2012-01-22,08:01～09:00,0.0445,0.0383,0.0406,
小平 (Kodaira),2012-01-22,07:01～08:00,0.0449,0.0387,0.0410,
小平 (Kodaira),2012-01-22,06:01～07:00,0.0435,0.0371,0.0415,
小平 (Kodaira),2012-01-22,05:01～06:00,0.0441,0.0371,0.0409,
小平 (Kodaira),2012-01-22,04:01～05:00,0.0434,0.0380,0.0407,
小平 (Kodaira),2012-01-22,03:01～04:00,0.0460,0.0393,0.0424,
小平 (Kodaira),2012-01-22,02:01～03:00,0.0478,0.0406,0.0445,
小平 (Kodaira),2012-01-22,01:01～02:00,0.0480,0.0415,0.0448,
小平 (Kodaira),2012-01-22,00:01～01:00,0.0488,0.0409,0.0452,
小平 (Kodaira),2012-01-21,23:01～24:00,0.0491,0.0429,0.0458,
小平 (Kodaira),2012-01-21,22:01～23:00,0.0493,0.0428,0.0455,
小平 (Kodaira),2012-01-21,21:01～22:00,0.0501,0.0414,0.0453,
小平 (Kodaira),2012-01-21,20:01～21:00,0.0501,0.0413,0.0452,
小平 (Kodaira),2012-01-21,19:01～20:00,0.0489,0.0434,0.0462,
小平 (Kodaira),2012-01-21,18:01～19:00,0.0495,0.0429,0.0461,
小平 (Kodaira),2012-01-21,17:01～18:00,0.0475,0.0416,0.0444,
小平 (Kodaira),2012-01-21,16:01～17:00,0.0475,0.0408,0.0438,
小平 (Kodaira),2012-01-21,15:01～16:00,0.0464,0.0408,0.0434,
小平 (Kodaira),2012-01-21,14:01～15:00,0.0484,0.0414,0.0452,
小平 (Kodaira),2012-01-21,13:01～14:00,0.0514,0.0429,0.0467,
小平 (Kodaira),2012-01-21,12:01～13:00,0.0471,0.0404,0.0440,
小平 (Kodaira),2012-01-21,11:01～12:00,0.0461,0.0401,0.0430,
小平 (Kodaira),2012-01-21,10:01～11:00,0.0465,0.0392,0.0428,
小平 (Kodaira),2012-01-21,09:01～10:00,0.0477,0.0398,0.0428,
小平 (Kodaira),2012-01-21,08:01～09:00,0.0458,0.0390,0.0421,
小平 (Kodaira),2012-01-21,07:01～08:00,0.0434,0.0375,0.0406,
小平 (Kodaira),2012-01-21,06:01～07:00,0.0437,0.0383,0.0408,
小平 (Kodaira),2012-01-21,05:01～06:00,0.0438,0.0381,0.0406,
小平 (Kodaira),2012-01-21,04:01～05:00,0.0425,0.0377,0.0397,
小平 (Kodaira),2012-01-21,03:01～04:00,0.0439,0.0366,0.0397,
小平 (Kodaira),2012-01-21,02:01～03:00,0.0425,0.0376,0.0401,
小平 (Kodaira),2012-01-21,01:01～02:00,0.0443,0.0377,0.0407,
小平 (Kodaira),2012-01-21,00:01～01:00,0.0470,0.0388,0.0420,
小平 (Kodaira),2012-01-20,23:01～24:00,0.0443,0.0370,0.0411,
小平 (Kodaira),2012-01-20,22:01～23:00,0.0435,0.0366,0.0400,
小平 (Kodaira),2012-01-20,21:01～22:00,0.0428,0.0371,0.0399,
小平 (Kodaira),2012-01-20,20:01～21:00,0.0436,0.0368,0.0399,
小平 (Kodaira),2012-01-20,19:01～20:00,0.0427,0.0368,0.0399,
小平 (Kodaira),2012-01-20,18:01～19:00,0.0428,0.0376,0.0401,
小平 (Kodaira),2012-01-20,17:01～18:00,0.0431,0.0377,0.0406,
小平 (Kodaira),2012-01-20,16:01～17:00,0.0460,0.0394,0.0420,
小平 (Kodaira),2012-01-20,15:01～16:00,0.0465,0.0400,0.0431,
小平 (Kodaira),2012-01-20,14:01～15:00,0.0465,0.0394,0.0434,
小平 (Kodaira),2012-01-20,13:01～14:00,0.0496,0.0397,0.0441,
小平 (Kodaira),2012-01-20,12:01～13:00,0.0478,0.0408,0.0438,
小平 (Kodaira),2012-01-20,11:01～12:00,0.0467,0.0413,0.0442,
小平 (Kodaira),2012-01-20,10:01～11:00,0.0482,0.0415,0.0443,
小平 (Kodaira),2012-01-20,09:01～10:00,0.0490,0.0413,0.0447,
小平 (Kodaira),2012-01-20,08:01～09:00,0.0489,0.0409,0.0440,
小平 (Kodaira),2012-01-20,07:01～08:00,0.0467,0.0400,0.0435,
小平 (Kodaira),2012-01-20,06:01～07:00,0.0488,0.0400,0.0443,
小平 (Kodaira),2012-01-20,05:01～06:00,0.0478,0.0422,0.0454,
小平 (Kodaira),2012-01-20,04:01～05:00,0.0495,0.0429,0.0458,
小平 (Kodaira),2012-01-20,03:01～04:00,0.0504,0.0404,0.0454,
小平 (Kodaira),2012-01-20,02:01～03:00,0.0494,0.0415,0.0452,
小平 (Kodaira),2012-01-20,01:01～02:00,0.0490,0.0428,0.0457,
小平 (Kodaira),2012-01-20,00:01～01:00,0.0500,0.0423,0.0461,
小平 (Kodaira),2012-01-19,23:01～24:00,0.0506,0.0438,0.0466,
小平 (Kodaira),2012-01-19,22:01～23:00,0.0492,0.0424,0.0463,
小平 (Kodaira),2012-01-19,21:01～22:00,0.0472,0.0404,0.0444,
小平 (Kodaira),2012-01-19,20:01～21:00,0.0467,0.0400,0.0425,
小平 (Kodaira),2012-01-19,19:01～20:00,0.0467,0.0393,0.0423,
小平 (Kodaira),2012-01-19,18:01～19:00,0.0437,0.0370,0.0410,
小平 (Kodaira),2012-01-19,17:01～18:00,0.0453,0.0366,0.0410,
小平 (Kodaira),2012-01-19,16:01～17:00,0.0448,0.0390,0.0416,
小平 (Kodaira),2012-01-19,15:01～16:00,0.0442,0.0368,0.0412,
小平 (Kodaira),2012-01-19,14:01～15:00,0.0447,0.0381,0.0416,
小平 (Kodaira),2012-01-19,13:01～14:00,0.0450,0.0387,0.0421,
小平 (Kodaira),2012-01-19,12:01～13:00,0.0447,0.0366,0.0420,
小平 (Kodaira),2012-01-19,11:01～12:00,0.0456,0.0389,0.0421,
小平 (Kodaira),2012-01-19,10:01～11:00,0.0460,0.0392,0.0425,
小平 (Kodaira),2012-01-19,09:01～10:00,0.0460,0.0388,0.0426,
小平 (Kodaira),2012-01-19,08:01～09:00,0.0467,0.0398,0.0425,
小平 (Kodaira),2012-01-19,07:01～08:00,0.0453,0.0392,0.0428,
小平 (Kodaira),2012-01-19,06:01～07:00,0.0472,0.0396,0.0429,
小平 (Kodaira),2012-01-19,05:01～06:00,0.0462,0.0389,0.0438,
小平 (Kodaira),2012-01-19,04:01～05:00,0.0475,0.0407,0.0441,
小平 (Kodaira),2012-01-19,03:01～04:00,0.0479,0.0408,0.0439,
小平 (Kodaira),2012-01-19,02:01～03:00,0.0465,0.0395,0.0437,
小平 (Kodaira),2012-01-19,01:01～02:00,0.0460,0.0400,0.0430,
小平 (Kodaira),2012-01-19,00:01～01:00,0.0460,0.0392,0.0420,
小平 (Kodaira),2012-01-18,23:01～24:00,0.0440,0.0392,0.0416,
小平 (Kodaira),2012-01-18,22:01～23:00,0.0452,0.0381,0.0418,
小平 (Kodaira),2012-01-18,21:01～22:00,0.0455,0.0368,0.0422,
小平 (Kodaira),2012-01-18,20:01～21:00,0.0458,0.0381,0.0415,
小平 (Kodaira),2012-01-18,19:01～20:00,0.0456,0.0372,0.0414,
小平 (Kodaira),2012-01-18,18:01～19:00,0.0441,0.0383,0.0416,
小平 (Kodaira),2012-01-18,17:01～18:00,0.0445,0.0381,0.0413,
小平 (Kodaira),2012-01-18,16:01～17:00,0.0433,0.0373,0.0409,
小平 (Kodaira),2012-01-18,15:01～16:00,0.0444,0.0386,0.0414,
小平 (Kodaira),2012-01-18,14:01～15:00,0.0448,0.0381,0.0416,
小平 (Kodaira),2012-01-18,13:01～14:00,0.0451,0.0388,0.0415,
小平 (Kodaira),2012-01-18,12:01～13:00,0.0459,0.0386,0.0415,
小平 (Kodaira),2012-01-18,11:01～12:00,0.0464,0.0392,0.0422,
小平 (Kodaira),2012-01-18,10:01～11:00,0.0453,0.0389,0.0425,
小平 (Kodaira),2012-01-18,09:01～10:00,0.0454,0.0395,0.0422,
小平 (Kodaira),2012-01-18,08:01～09:00,0.0464,0.0400,0.0427,
小平 (Kodaira),2012-01-18,07:01～08:00,0.0453,0.0393,0.0424,
小平 (Kodaira),2012-01-18,06:01～07:00,0.0458,0.0392,0.0422,
小平 (Kodaira),2012-01-18,05:01～06:00,0.0450,0.0380,0.0422,
小平 (Kodaira),2012-01-18,04:01～05:00,0.0461,0.0392,0.0426,
小平 (Kodaira),2012-01-18,03:01～04:00,0.0463,0.0402,0.0433,
小平 (Kodaira),2012-01-18,02:01～03:00,0.0480,0.0401,0.0429,
小平 (Kodaira),2012-01-18,01:01～02:00,0.0455,0.0388,0.0422,
小平 (Kodaira),2012-01-18,00:01～01:00,0.0462,0.0376,0.0421,
小平 (Kodaira),2012-01-17,23:01～24:00,0.0450,0.0385,0.0415,
小平 (Kodaira),2012-01-17,22:01～23:00,0.0446,0.0387,0.0414,
小平 (Kodaira),2012-01-17,21:01～22:00,0.0442,0.0376,0.0415,
小平 (Kodaira),2012-01-17,20:01～21:00,0.0460,0.0385,0.0417,
小平 (Kodaira),2012-01-17,19:01～20:00,0.0446,0.0387,0.0416,
小平 (Kodaira),2012-01-17,18:01～19:00,0.0452,0.0379,0.0409,
小平 (Kodaira),2012-01-17,17:01～18:00,0.0469,0.0387,0.0414,
小平 (Kodaira),2012-01-17,16:01～17:00,0.0445,0.0377,0.0409,
小平 (Kodaira),2012-01-17,15:01～16:00,0.0444,0.0374,0.0410,
小平 (Kodaira),2012-01-17,14:01～15:00,0.0442,0.0390,0.0416,
小平 (Kodaira),2012-01-17,13:01～14:00,0.0441,0.0391,0.0414,
小平 (Kodaira),2012-01-17,12:01～13:00,0.0461,0.0392,0.0418,
小平 (Kodaira),2012-01-17,11:01～12:00,0.0449,0.0384,0.0416,
小平 (Kodaira),2012-01-17,10:01～11:00,0.0448,0.0391,0.0414,
小平 (Kodaira),2012-01-17,09:01～10:00,0.0446,0.0393,0.0417,
小平 (Kodaira),2012-01-17,08:01～09:00,0.0446,0.0395,0.0419,
小平 (Kodaira),2012-01-17,07:01～08:00,0.0467,0.0395,0.0420,
小平 (Kodaira),2012-01-17,06:01～07:00,0.0447,0.0382,0.0420,
小平 (Kodaira),2012-01-17,05:01～06:00,0.0451,0.0387,0.0418,
小平 (Kodaira),2012-01-17,04:01～05:00,0.0459,0.0393,0.0423,
小平 (Kodaira),2012-01-17,03:01～04:00,0.0463,0.0397,0.0425,
小平 (Kodaira),2012-01-17,02:01～03:00,0.0459,0.0390,0.0424,
小平 (Kodaira),2012-01-17,01:01～02:00,0.0459,0.0384,0.0422,
小平 (Kodaira),2012-01-17,00:01～01:00,0.0450,0.0396,0.0421,
小平 (Kodaira),2012-01-16,23:01～24:00,0.0468,0.0370,0.0421,
小平 (Kodaira),2012-01-16,22:01～23:00,0.0452,0.0383,0.0418,
小平 (Kodaira),2012-01-16,21:01～22:00,0.0443,0.0385,0.0417,
小平 (Kodaira),2012-01-16,20:01～21:00,0.0442,0.0388,0.0416,
小平 (Kodaira),2012-01-16,19:01～20:00,0.0444,0.0377,0.0411,
小平 (Kodaira),2012-01-16,18:01～19:00,0.0441,0.0380,0.0414,
小平 (Kodaira),2012-01-16,17:01～18:00,0.0464,0.0374,0.0416,
小平 (Kodaira),2012-01-16,16:01～17:00,0.0447,0.0377,0.0415,
小平 (Kodaira),2012-01-16,15:01～16:00,0.0443,0.0373,0.0413,
小平 (Kodaira),2012-01-16,14:01～15:00,0.0439,0.0373,0.0414,
小平 (Kodaira),2012-01-16,13:01～14:00,0.0464,0.0389,0.0417,
小平 (Kodaira),2012-01-16,12:01～13:00,0.0441,0.0388,0.0412,
小平 (Kodaira),2012-01-16,11:01～12:00,0.0454,0.0387,0.0415,
小平 (Kodaira),2012-01-16,10:01～11:00,0.0443,0.0377,0.0411,
小平 (Kodaira),2012-01-16,09:01～10:00,0.0446,0.0377,0.0413,
小平 (Kodaira),2012-01-16,08:01～09:00,0.0449,0.0389,0.0415,
小平 (Kodaira),2012-01-16,07:01～08:00,0.0447,0.0384,0.0412,
小平 (Kodaira),2012-01-16,06:01～07:00,0.0453,0.0387,0.0416,
小平 (Kodaira),2012-01-16,05:01～06:00,0.0448,0.0386,0.0415,
小平 (Kodaira),2012-01-16,04:01～05:00,0.0451,0.0379,0.0415,
小平 (Kodaira),2012-01-16,03:01～04:00,0.0440,0.0386,0.0420,
小平 (Kodaira),2012-01-16,02:01～03:00,0.0443,0.0401,0.0421,
小平 (Kodaira),2012-01-16,01:01～02:00,0.0453,0.0390,0.0421,
小平 (Kodaira),2012-01-16,00:01～01:00,0.0449,0.0394,0.0420,
